CZ-6A DEB, 68406

Orbit data source: Space-Track

CZ-6A DEB, 68406 is space debris in SSO originally from a launch on Fri, 11 Nov 2022 UTC launched from the Taiyaun Space Center, China (TSC). Debris objects in space refer to the collection of defunct objects orbiting the Earth. Examples of debris include non-operational satellites, rocket bodies, and fragments generated from explosions, collisions, or faulty payload assembly.

Loading next visibility...
Identifier
68406, 2022-151AJH
Orbit
SSO
Country
Flag of CNCN / PRC
Related business
Manufacturer
SAST
Mission
Spacecraft
Bus & Motor
Unknown
Mass
Unknown
Launch date (UTC)
2022-11-11 (4 years ago)
Launch vehicle
Unknown
Launch site
Taiyaun Space Center, China (TSC)
Object type
Payload
Rocket body
Debris
Shape & HBR
Unknown shape, 1.1 m
Radar Cross Section
Medium (>0.1 m² and <1 m²)

Expand to show TLE details & history
Last TLE update: 2 days ago

TLE from 2 days ago
0 CZ-6A DEB
1 68406U 22151AJH 26252.87276017  .00005573  00000-0  10347-2 0  9997
2 68406  99.1340  35.4770 0073793  93.4105 267.5539 14.63911305181885
Epoch: 2026-09-09T20:56Z
TLE epoch observation values (Epoch: 2026-09-09T20:56:46.478Z)
Latitude
-0.00001°
Longitude
92.36476°
Altitude
686.14 km
Speed
7.512 km/s
True Right ascension
02h 21m 54s
True Declination
0° 00' 00"
Sunlit
Object was in full shadow at epoch
Visualization orbit readout
Latitude
Unknown
Longitude
Unknown
Altitude
Unknown
Speed
Unknown
Apparent Right ascension
Unknown
Apparent Declination
Unknown
Sunlit
N/A
Visualization observer readout
Local Sidereal Time
15:18:45
Azimuth
Unknown
Elevation
Unknown
Doppler factor
Unknown
Orbital elements
Apogee altitude
729.761 km
Perigee altitude
625.627 km
Semi-major axis
7,055.831 km
Eccentricity
0.00738
Inclination
99.134°
RAAN
35.477°
Arg. of periapsis
93.4105°
True anomaly
266.70943°
Mean anomaly
267.5539°
Eccentric anomaly
267.13163°
Mean motion
3.66202 °/min
Orbital period
98.31 mins
BSTAR
0.0010347
Loading maneuver chart data...
Computing Atmospheric mass density...
Loading historical data...
Loading historical data...
Loading historical data...
Loading historical data...
Loading historical data...
Loading historical data...
Loading historical data...

Documentation

Showing up to 5 results
|